Regional Weather Roundup
Issued by NWS Little Rock, AR

Home | Current Version | Previous Version | Text Only | Print | Product List | Glossary Off
Versions: 1 2 3 4 5 6 7 8 9 10 11 12 13 14 15 16 17 18 19 20 21 22 23 24 25 26 27 28 29 30 31 32 33 34 35 36 37 38 39 40 41 42 43 44 45 46 47 48 49 50

000
ASUS44 KLZK 270305
RWRLZK

WEATHER ROUNDUP FOR ARKANSAS
NATIONAL WEATHER SERVICE LITTLE ROCK AR
1000 PM CDT WED APR 26 2017

NOTE: "FAIR" INDICATES FEW OR NO CLOUDS BELOW 12,000 FEET WITH NO
SIGNIFICANT WEATHER AND/OR OBSTRUCTIONS TO VISIBILITY.

ARZ001-003-010-029-270400-
NORTHWEST ARKANSAS

CITY           SKY/WX    TMP DP  RH WIND       PRES   REMARKS
FAYETTEVILLE   CLOUDY    45  43  93 VRB5      29.71R
FORT SMITH     CLOUDY    51  43  74 NW6       29.72R
HARRISON       CLOUDY    45  44  97 W13G21    29.66R
BENTONVILLE    CLOUDY    45  41  87 NW6       29.70R
ROGERS         CLOUDY    44  42  93 NW9       29.70R
SILOAM SPGS    CLOUDY    45  39  81 NW5       29.70R
HIGHFILL       CLOUDY    45  43  93 W6        29.69R
$$

ARZ004-005-016-270400-
NORTH CENTRAL ARKANSAS

CITY           SKY/WX    TMP DP  RH WIND       PRES   REMARKS
BATESVILLE     CLOUDY   N/A N/A N/A W7        29.59R
FLIPPIN        CLOUDY   N/A N/A N/A NW8       29.61R
MTN HOME       CLOUDY    47  43  86 VRB6      29.61R
$$

ARZ040-041-270400-
WEST CENTRAL ARKANSAS

CITY           SKY/WX    TMP DP  RH WIND       PRES   REMARKS
MENA           CLOUDY    52  52 100 W13G20    29.71R
MOUNT IDA      CLOUDY    51  46  83 NW12G18   29.66R
$$

ARZ009-017-025-026-028-270400-
NORTHEAST ARKANSAS

CITY           SKY/WX    TMP DP  RH WIND       PRES   REMARKS
JONESBORO      CLOUDY    61  59  93 E6        29.46F
NEWPORT        LGT RAIN  59  57  93 W28G36    29.56R
WALNUT RIDGE   CLOUDY    61  55  82 W14       29.54R
BLYTHEVILLE    TSTM      60  60 100 SE10      29.58R
$$

ARZ022-023-033-042-044-270400-
CENTRAL ARKANSAS

CITY           SKY/WX    TMP DP  RH WIND       PRES   REMARKS
LITTLE ROCK    CLOUDY    54  52  93 W12G22    29.63R
N LITTLE ROCK    N/A     52  50  93 W9G22     29.62R
JACKSONVILLE   CLOUDY    55  55  99 W14       29.61R
CONWAY           N/A     54  52  94 W12G17    29.64R
SEARCY         CLOUDY    57  56  96 W8G16     29.60R
HOT SPRINGS    CLOUDY    53  50  89 NW15      29.67R
RUSSELLVILLE   CLOUDY    52  47  83 W15G22    29.67R
CLINTON          N/A     52  50  93 VRB5G13   29.63R
$$

ARZ036-270400-
EAST ARKANSAS

CITY           SKY/WX    TMP DP  RH WIND       PRES   REMARKS
WEST MEMPHIS   LGT RAIN  62  62 100 E17       29.44F
$$

ARZ050-053-066-070-073-270400-
SOUTHWEST ARKANSAS

CITY           SKY/WX    TMP DP  RH WIND       PRES   REMARKS
ARKADELPHIA    CLOUDY    54  50  86 NW7       29.70R
CAMDEN         CLOUDY    55  54  94 W6G16     29.67R
TEXARKANA      CLOUDY    53  48  83 NW10      29.71R
EL DORADO      CLOUDY    56  55  97 W10       29.68R
DE QUEEN       CLOUDY    54  49  83 NW8       29.70R
$$

ARZ056-057-069-270400-
SOUTHEAST ARKANSAS

CITY           SKY/WX    TMP DP  RH WIND       PRES   REMARKS
PINE BLUFF     CLOUDY    61  59  93 W14G20    29.61R
STUTTGART      CLOUDY    59  52  77 W15G21    29.61R
MONTICELLO     CLOUDY    63  61  93 W7        29.61R

$$





USA.gov is the U.S. government's official web portal to all federal, state and local government web resources and services.